Regional Weather Roundup
Issued by NWS

Current Version | Previous Version | Text Only | Print | Product List | Glossary On
Versions: 1 2 3 4 5 6 7 8 9 10 11 12 13 14 15 16 17 18 19 20 21 22 23 24 25 26 27 28 29 30 31 32 33 34 35 36 37 38 39 40 41 42 43 44 45 46 47 48 49 50
000
ASUS44 KMEG 232100
RWRTN
TENNESSEE HOURLY STATE WEATHER ROUNDUP
NATIONAL WEATHER SERVICE MEMPHIS TN
300 PM CST SUN NOV 23 2014

TNZ002-004-019-021-049-052-054-088>092-232200-
WEST TENNESSEE

CITY           SKY/WX    TMP DP  RH WIND       PRES   REMARKS
MEMPHIS INTL   CLOUDY    63  60  90 S8        29.32F
NWS MEMPHIS      N/A     62 N/A N/A MISG        N/A
JACKSON        CLOUDY    59  56  89 SE10G16   29.35F
DYERSBURG      CLOUDY    57  46  67 E6        29.35F
UNION CITY     CLOUDY    55  55 100 SW7       29.36F
PARIS          CLOUDY    55  54  94 SE8       29.39F
LEXINGTON      CLOUDY    57  55  94 VRB6      29.38F
SAVANNAH       PTSUNNY   61  61 100 SE13      29.39F
$$

TNZ008-025-027-028-033-062-065-066-232200-
NORTH MIDDLE TENNESSEE

CITY           SKY/WX    TMP DP  RH WIND       PRES   REMARKS
NASHVILLE      LGT RAIN  59  56  89 SE17G26   29.48F
CLARKSVILLE    RAIN      58  56  93 SE16      29.43F FOG
COOKEVILLE     PTSUNNY   57  55  94 S12       29.54F
CROSSVILLE     LGT RAIN  54  50  86 SE12G20   29.62F
$$

TNZ061-075-076-078-094-096-097-232200-
SOUTH MIDDLE TENNESSEE

CITY           SKY/WX    TMP DP  RH WIND       PRES   REMARKS
TULLAHOMA      CLOUDY    55  54  94 SE8       29.52F
WINCHESTER     CLOUDY    57  55  94 S12       29.55S
SHELBYVILLE    PTSUNNY   57  57 100 SE21      29.50F
$$

TNZ017-018-042-046-047-232200-
NORTHEAST TENNESSEE

CITY           SKY/WX    TMP DP  RH WIND       PRES   REMARKS
TRI CITIES     LGT RAIN  57  48  72 E8        29.82F
ELIZABETHTON   MOCLDY    55  46  71 E16       29.83S
$$

TNZ012-013-036-069-073-074-232200-
CENTRAL EAST TENNESSEE

CITY           SKY/WX    TMP DP  RH WIND       PRES   REMARKS
KNOXVILLE      RAIN      54  52  93 N9        29.66F
OAK RIDGE      LGT RAIN  52  51  97 CALM      29.70F
GATLINBURG     MOCLDY    50  48  93 SW3       29.67F
$$

TNZ083-085-099-232200-
SOUTHEAST TENNESSEE

CITY           SKY/WX    TMP DP  RH WIND       PRES   REMARKS
CHATTANOOGA    LGT RAIN  50  49  96 NE6       29.63F VSB 1
$$

SKY/WX REPORTED AS FAIR MEANS FEW OR NO CLOUDS BELOW
12 THOUSAND FEET.




USA.gov is the U.S. government's official web portal to all federal, state and local government web resources and services.